Location: Darmstadt
(49.8706°N, 8.6494°E)
Time: 07:20:22
(UTC+01:00)

Cosmos 1844 Rocket - Pass Details

Date: 31 October 2020
Orbit: 823 x 846 km, 71.0° (Epoch: 03 December)

Event Time Altitude Azimuth Distance (km) Brightness Sun altitude
Rises 18:50:45 0° 333° (NNW) 3,412 6.2 -17.7°
Reaches altitude 10° 18:53:57 10° 351° (N) 2,477 5.2 -18.2°
Maximum altitude 18:57:58 19° 36° (NE) 1,897 4.2 -18.8°
Enters shadow 18:58:18 19° 41° (NE) 1,902 4.2 -18.9°
